EW7951 Weather Reports


time (UTC)temp
C
wind
direction
speed
KPH
gust
KPH
rain 1hr
cm
rain 24hr
cm
rain mn
cm
humidity
%
barometer
mb
20260507123105 16 153 0.0 4.8 0.00 0.00 0.00 46 1014.6
20260507122606 16 98 0.0 3.2 0.00 0.00 0.00 48 1014.6
20260507122105 17 63 3.2 9.7 0.00 0.00 0.00 45 1014.6
20260507121605 17 62 0.0 0.0 0.00 0.00 0.00 49 1014.5
20260507121105 16 58 0.0 4.8 0.00 0.00 0.00 51 1014.6
20260507120605 16 30 0.0 4.8 0.00 0.00 0.00 54 1014.7
20260507120106 16 30 1.6 8.0 0.00 0.00 0.00 54 1014.6
20260507115104 15 342 0.0 1.6 0.00 0.00 0.00 52 1014.7
20260507114604 15 355 0.0 4.8 0.00 0.00 0.00 55 1014.6
20260507114105 15 338 1.6 4.8 0.00 0.00 0.00 57 1014.6
20260507113605 15 335 1.6 4.8 0.00 0.00 0.00 50 1014.6
20260507113105 15 339 0.0 8.0 0.00 0.00 0.00 56 1014.7
20260507112605 15 345 0.0 4.8 0.00 0.00 0.00 58 1014.9
20260507112106 15 343 0.0 4.8 0.00 0.00 0.00 58 1014.9
20260507110605 15 7 0.0 0.0 0.00 0.00 0.00 57 1014.9
20260507110105 15 7 0.0 0.0 0.00 0.00 0.00 56 1015.0
20260507105604 14 7 0.0 0.0 0.00 0.00 0.00 59 1015.0
20260507105104 14 7 0.0 4.8 0.00 0.00 0.00 62 1014.9
20260507104605 14 7 1.6 4.8 0.00 0.00 0.00 62 1014.9
20260507104105 14 50 0.0 0.0 0.00 0.00 0.00 61 1014.9
20260507103605 15 50 0.0 4.8 0.00 0.00 0.00 56 1014.9
20260507103105 16 347 0.0 0.0 0.00 0.00 0.00 54 1014.9
20260507102606 16 350 0.0 0.0 0.00 0.00 0.00 56 1014.9
20260507101605 15 358 1.6 4.8 0.00 0.00 0.00 61 1014.9
20260507101105 16 46 1.6 4.8 0.00 0.00 0.00 60 1014.9
20260507100605 15 59 0.0 0.0 0.00 0.00 0.00 58 1014.8
20260507100105 13 57 1.6 0.0 0.00 0.00 0.00 74 1014.7
20260507095605 13 57 1.6 0.0 0.00 0.00 0.00 74 1014.7
20260507094105 13 57 1.6 0.0 0.00 0.00 0.00 74 1014.7
20260507093605 13 57 1.6 0.0 0.00 0.00 0.00 74 1014.7
20260507092606 13 57 1.6 0.0 0.00 0.00 0.00 74 1014.7
20260507092105 13 57 1.6 0.0 0.00 0.00 0.00 74 1014.7
20260507091607 13 57 1.6 0.0 0.00 0.00 0.00 74 1014.7
20260507091106 13 57 1.6 0.0 0.00 0.00 0.00 74 1014.7
20260507090606 13 57 1.6 0.0 0.00 0.00 0.00 74 1014.7
20260507090105 13 57 1.6 0.0 0.00 0.00 0.00 74 1014.7
20260507085605 13 57 1.6 0.0 0.00 0.00 0.00 74 1014.7
20260507085105 13 57 1.6 4.8 0.00 0.00 0.00 74 1014.7
20260507084104 13 79 0.0 3.2 0.00 0.00 0.00 74 1014.7
20260507083605 13 79 1.6 3.2 0.00 0.00 0.00 75 1014.6
20260507083105 12 25 1.6 4.8 0.00 0.00 0.00 76 1014.7
20260507082105 12 357 0.0 0.0 0.00 0.00 0.00 77 1014.6
20260507081104 12 357 3.2 8.0 0.00 0.00 0.00 77 1014.6
20260507080605 12 351 0.0 0.0 0.00 0.00 0.00 79 1014.6
20260507080105 11 351 0.0 0.0 0.00 0.00 0.00 79 1014.6
20260507075105 11 351 0.0 0.0 0.00 0.00 0.00 79 1014.6
20260507074105 11 351 0.0 0.0 0.00 0.00 0.00 82 1014.6
20260507073605 11 351 0.0 4.8 0.00 0.00 0.00 82 1014.5
20260507073105 11 351 3.2 4.8 0.00 0.00 0.00 82 1014.5
20260507072605 11 349 1.6 4.8 0.00 0.00 0.00 83 1014.4
20260507072105 10 349 0.0 4.8 0.00 0.00 0.00 83 1014.5
20260507071604 10 347 0.0 4.8 0.00 0.00 0.00 83 1014.5
20260507071105 10 345 1.6 8.0 0.00 0.00 0.00 83 1014.5
20260507070605 10 345 3.2 4.8 0.00 0.00 0.00 83 1014.5
20260507070105 10 345 0.0 3.2 0.00 0.00 0.00 83 1014.4
20260507065605 10 345 0.0 3.2 0.00 0.00 0.00 83 1014.4
20260507065105 10 344 0.0 4.8 0.00 0.00 0.00 84 1014.3
20260507064605 10 344 1.6 4.8 0.00 0.00 0.00 84 1014.3
20260507064105 10 343 3.2 4.8 0.00 0.00 0.00 84 1014.4
20260507063105 10 338 0.0 0.0 0.00 0.00 0.00 84 1014.3
20260507062605 10 337 1.6 4.8 0.00 0.00 0.00 84 1014.2
20260507062105 10 339 0.0 0.0 0.00 0.00 0.00 85 1014.2
20260507061605 10 339 0.0 0.0 0.00 0.00 0.00 85 1014.1
20260507061105 10 339 0.0 0.0 0.00 0.00 0.00 85 1014.2
20260507060606 10 338 0.0 0.0 0.00 0.00 0.00 85 1014.2
20260507060105 10 339 0.0 4.8 0.00 0.00 0.00 85 1014.1
20260507055605 10 339 0.0 0.0 0.00 0.00 0.00 85 1014.1
20260507054604 9 338 1.6 4.8 0.00 0.00 0.00 85 1014.0
20260507054105 9 339 0.0 0.0 0.00 0.00 0.00 86 1014.1
20260507053605 9 339 3.2 4.8 0.00 0.00 0.00 85 1014.0
20260507053105 9 339 0.0 0.0 0.00 0.00 0.00 86 1013.9
20260507052604 9 338 0.0 0.0 0.00 0.00 0.00 86 1013.8
20260507052104 9 339 0.0 0.0 0.00 0.00 0.00 86 1013.9
20260507051605 9 338 0.0 0.0 0.00 0.00 0.00 85 1013.8
20260507051105 9 339 0.0 0.0 0.00 0.00 0.00 86 1013.6
20260507050605 9 339 0.0 0.0 0.00 0.00 0.00 86 1013.6
20260507050105 9 339 0.0 0.0 0.00 0.00 0.00 85 1013.5
20260507045605 9 339 0.0 0.0 0.00 0.00 0.00 85 1013.4
20260507045105 9 338 0.0 0.0 0.00 0.00 0.00 85 1013.5
20260507044605 9 339 0.0 0.0 0.00 0.00 0.00 85 1013.3
20260507044105 9 339 0.0 0.0 0.00 0.00 0.00 85 1013.2
20260507043605 9 339 0.0 0.0 0.00 0.00 0.00 85 1013.3
20260507043105 9 339 0.0 0.0 0.00 0.00 0.00 86 1013.3
20260507042604 9 339 0.0 0.0 0.00 0.00 0.00 85 1013.3
20260507042105 9 338 0.0 0.0 0.00 0.00 0.00 85 1013.3
20260507041605 9 337 0.0 0.0 0.00 0.00 0.00 85 1013.3
20260507041106 10 339 0.0 0.0 0.00 0.03 0.00 85 1013.2
20260507035605 10 339 0.0 0.0 0.00 0.03 0.00 85 1013.1
20260507035105 10 339 0.0 0.0 0.00 0.03 0.00 85 1013.1
20260507034105 10 337 0.0 0.0 0.00 0.03 0.00 85 1013.0
20260507033605 10 339 0.0 0.0 0.00 0.03 0.00 85 1013.0
20260507033105 10 339 0.0 0.0 0.00 0.03 0.00 85 1013.0
20260507032605 10 338 0.0 0.0 0.00 0.03 0.00 85 1013.1
20260507032105 10 339 0.0 0.0 0.00 0.03 0.00 84 1013.1
20260507031605 10 339 0.0 0.0 0.00 0.03 0.00 84 1013.1
20260507031105 10 338 0.0 0.0 0.00 0.03 0.00 85 1013.1
20260507030605 10 339 0.0 0.0 0.00 0.05 0.00 85 1013.1
20260507030105 10 339 0.0 0.0 0.00 0.05 0.00 85 1013.1
20260507025605 10 339 0.0 0.0 0.00 0.05 0.00 84 1013.1
20260507025105 10 339 0.0 0.0 0.00 0.05 0.00 85 1013.1
20260507024605 10 339 0.0 0.0 0.00 0.05 0.00 85 1013.1
20260507024105 10 339 0.0 0.0 0.00 0.05 0.00 84 1013.1
20260507023107 10 338 0.0 0.0 0.00 0.05 0.00 85 1013.1
20260507022605 10 339 0.0 0.0 0.00 0.05 0.00 84 1013.1
20260507022105 10 339 0.0 0.0 0.00 0.08 0.00 84 1013.0
20260507021605 10 339 0.0 0.0 0.00 0.08 0.00 84 1013.0
20260507021105 10 339 0.0 0.0 0.00 0.08 0.00 85 1012.9
20260507020105 10 339 0.0 1.6 0.00 0.10 0.00 84 1012.8
20260507015105 10 338 0.0 0.0 0.00 0.10 0.00 85 1012.7
20260507014605 10 339 0.0 0.0 0.00 0.13 0.00 85 1012.7
20260507014105 10 338 0.0 0.0 0.00 0.13 0.00 85 1012.7
20260507013606 10 338 0.0 4.8 0.00 0.13 0.00 85 1012.7
20260507013105 10 339 0.0 0.0 0.00 0.13 0.00 85 1012.7
20260507012105 10 338 0.0 0.0 0.00 0.13 0.00 85 1012.7
20260507011605 10 338 0.0 0.0 0.00 0.13 0.00 84 1012.7
20260507011106 10 339 0.0 0.0 0.00 0.13 0.00 85 1012.7
20260507010105 10 339 0.0 0.0 0.00 0.15 0.00 84 1012.6
20260507005605 10 339 0.0 0.0 0.00 0.15 0.00 84 1012.6
20260507005105 10 339 0.0 0.0 0.00 0.15 0.00 84 1012.6
20260507004605 10 339 0.0 0.0 0.00 0.15 0.00 84 1012.5
20260507004105 10 338 0.0 0.0 0.00 0.15 0.00 84 1012.5
20260507003606 10 339 0.0 4.8 0.00 0.15 0.00 84 1012.5
20260507003105 10 336 0.0 0.0 0.00 0.15 0.00 84 1012.6
20260507002605 10 335 0.0 0.0 0.00 0.15 0.00 83 1012.6
20260507002105 10 336 0.0 0.0 0.00 0.15 0.00 83 1012.6
20260507001607 10 336 0.0 3.2 0.00 0.15 0.00 83 1012.6
20260507001107 10 336 0.0 4.8 0.00 0.15 0.00 84 1012.5
20260507000605 10 335 0.0 4.8 0.00 0.15 0.00 83 1012.5
20260507000105 10 335 0.0 0.0 0.00 0.15 0.00 84 1012.5
20260506235606 10 335 1.6 4.8 0.00 0.15 0.00 84 1012.4
20260506235105 10 332 0.0 0.0 0.00 0.15 0.00 84 1012.5
20260506234605 10 332 0.0 4.8 0.00 0.15 0.00 84 1012.5
20260506234105 10 333 0.0 0.0 0.00 0.18 0.00 84 1012.5
20260506233606 10 333 0.0 0.0 0.00 0.18 0.00 84 1012.6
20260506232605 10 333 0.0 0.0 0.00 0.20 0.00 84 1012.6
20260506232106 10 333 0.0 0.0 0.00 0.20 0.00 84 1012.6
20260506231605 10 333 0.0 0.0 0.00 0.20 0.00 84 1012.6
20260506230605 10 333 0.0 0.0 0.00 0.20 0.00 84 1012.5
20260506230105 10 333 0.0 0.0 0.00 0.20 0.00 84 1012.5
20260506225605 10 332 0.0 0.0 0.00 0.20 0.00 84 1012.4
20260506225105 10 333 0.0 0.0 0.00 0.20 0.00 84 1012.4
20260506224605 10 333 0.0 0.0 0.00 0.20 0.00 84 1012.4
20260506224105 10 333 0.0 0.0 0.00 0.20 0.00 84 1012.4
20260506223105 10 333 0.0 0.0 0.00 0.23 0.00 84 1012.4
20260506222605 10 333 0.0 0.0 0.00 0.23 0.00 84 1012.3
20260506222105 10 333 0.0 0.0 0.00 0.23 0.00 84 1012.3
20260506221606 10 332 0.0 0.0 0.00 0.23 0.00 84 1012.2
20260506221105 10 333 0.0 0.0 0.00 0.23 0.00 84 1012.2
20260506220605 10 333 0.0 0.0 0.00 0.23 0.00 84 1012.2
20260506220105 10 332 0.0 0.0 0.00 0.23 0.00 84 1012.1
20260506215606 10 333 0.0 0.0 0.00 0.23 0.23 84 1012.2
20260506215105 10 333 0.0 0.0 0.00 0.23 0.23 84 1012.1
20260506214104 10 333 0.0 0.0 0.00 0.23 0.23 84 1012.1
20260506213604 10 334 0.0 3.2 0.00 0.23 0.23 84 1012.1
20260506212603 10 333 0.0 0.0 0.00 0.23 0.23 84 1012.1
20260506211604 10 334 0.0 0.0 0.00 0.23 0.23 84 1012.0
20260506211103 10 334 0.0 0.0 0.00 0.23 0.23 84 1012.0
20260506210605 10 333 0.0 0.0 0.00 0.23 0.23 84 1012.0
20260506210103 10 334 0.0 0.0 0.00 0.23 0.23 84 1012.0
20260506205604 10 334 0.0 0.0 0.00 0.23 0.23 84 1012.0
20260506205104 10 334 0.0 0.0 0.00 0.23 0.23 84 1011.9
20260506204603 10 334 0.0 3.2 0.00 0.23 0.23 84 1011.9
20260506204104 10 334 0.0 0.0 0.00 0.23 0.23 85 1011.9
20260506203604 10 333 0.0 0.0 0.00 0.23 0.23 85 1011.9
20260506202603 10 334 0.0 0.0 0.00 0.23 0.23 85 1011.8
20260506202103 10 334 0.0 3.2 0.00 0.23 0.23 85 1011.8
20260506201603 10 332 0.0 0.0 0.00 0.23 0.23 85 1011.7
20260506201104 10 334 0.0 0.0 0.00 0.23 0.23 85 1011.6
20260506200603 10 335 0.0 1.6 0.00 0.23 0.23 85 1011.7
20260506195603 10 343 0.0 0.0 0.00 0.23 0.23 85 1011.6
20260506195104 10 343 1.6 4.8 0.00 0.23 0.23 85 1011.6
20260506194603 10 344 0.0 0.0 0.00 0.23 0.23 85 1011.5
20260506194103 10 344 0.0 0.0 0.00 0.23 0.23 85 1011.5
20260506193104 10 344 1.6 4.8 0.00 0.23 0.23 85 1011.3
20260506192604 10 350 0.0 3.2 0.00 0.23 0.23 85 1011.2
20260506192103 10 351 0.0 8.0 0.00 0.23 0.23 86 1011.0
20260506191104 10 354 3.2 8.0 0.00 0.23 0.23 84 1011.0
20260506190104 11 340 8.0 16.1 0.00 0.23 0.23 81 1011.0
20260506185604 11 351 0.0 8.0 0.00 0.23 0.23 80 1010.9
20260506185103 11 347 4.8 9.7 0.00 0.23 0.23 79 1010.9
20260506184603 11 3 9.7 12.9 0.00 0.23 0.23 78 1010.8
20260506184104 11 351 6.4 11.3 0.00 0.23 0.23 77 1010.8
20260506183604 11 349 3.2 8.0 0.00 0.23 0.23 78 1010.7
20260506183104 11 354 0.0 8.0 0.00 0.23 0.23 78 1010.6
20260506182603 11 354 0.0 4.8 0.00 0.23 0.23 78 1010.6
20260506181104 11 1 4.8 11.3 0.00 0.23 0.23 76 1010.4
20260506180603 11 2 3.2 11.3 0.00 0.23 0.23 76 1010.3
20260506180103 12 7 3.2 8.0 0.00 0.23 0.23 75 1010.2
20260506175604 12 348 3.2 9.7 0.00 0.23 0.23 75 1010.2
20260506175104 12 338 8.0 19.3 0.00 0.25 0.23 74 1010.1
20260506174603 12 2 9.7 19.3 0.00 0.25 0.23 73 1010.1
20260506174103 12 5 4.8 14.5 0.00 0.25 0.23 73 1010.0
20260506173103 12 2 8.0 19.3 0.00 0.25 0.23 72 1009.9
20260506172604 12 340 4.8 11.3 0.00 0.25 0.23 72 1009.9
20260506171603 12 341 4.8 16.1 0.00 0.25 0.23 71 1009.8
20260506171103 12 341 3.2 16.1 0.00 0.25 0.23 71 1009.8
20260506170604 12 358 8.0 19.3 0.00 0.25 0.23 72 1009.8
20260506165604 12 347 3.2 4.8 0.00 0.25 0.23 71 1009.7
20260506165104 13 339 1.6 9.7 0.00 0.25 0.23 71 1009.6
20260506164604 13 317 0.0 0.0 0.00 0.25 0.23 70 1009.6
20260506163604 13 308 1.6 4.8 0.00 0.25 0.23 69 1009.6
20260506163104 13 344 0.0 4.8 0.00 0.25 0.23 69 1009.5
20260506162604 13 347 1.6 4.8 0.00 0.25 0.23 68 1009.4
20260506162103 13 356 0.0 4.8 0.00 0.25 0.23 69 1009.5
20260506161603 13 341 1.6 8.0 0.00 0.25 0.23 69 1009.5
20260506161103 13 327 0.0 4.8 0.00 0.25 0.23 69 1009.5
20260506160603 13 327 0.0 3.2 0.00 0.25 0.23 70 1009.5
20260506155604 13 328 0.0 4.8 0.00 0.25 0.23 70 1009.5
20260506154604 12 311 1.6 8.0 0.00 0.25 0.23 70 1009.4
20260506154104 12 317 1.6 4.8 0.00 0.25 0.23 70 1009.4
20260506153604 12 346 1.6 4.8 0.00 0.25 0.23 70 1009.4
20260506153104 12 330 1.6 9.7 0.00 0.25 0.23 69 1009.5
20260506152604 12 326 0.0 8.0 0.00 0.25 0.23 71 1009.5
20260506152105 12 321 1.6 8.0 0.00 0.28 0.23 70 1009.5
20260506151603 12 344 1.6 4.8 0.00 0.28 0.23 71 1009.5
20260506150604 12 335 1.6 4.8 0.00 0.30 0.23 71 1009.5
20260506150104 12 338 1.6 4.8 0.00 0.30 0.23 70 1009.5
20260506145104 12 327 4.8 11.3 0.00 0.30 0.23 70 1009.5
20260506144604 12 326 1.6 8.0 0.00 0.30 0.23 70 1009.6
20260506144104 12 339 4.8 9.7 0.00 0.30 0.23 70 1009.6
20260506143603 12 330 4.8 12.9 0.00 0.33 0.23 69 1009.6
20260506143104 12 342 3.2 11.3 0.00 0.33 0.23 68 1009.6
20260506142603 12 340 1.6 4.8 0.00 0.33 0.23 67 1009.5
20260506142104 12 323 3.2 9.7 0.00 0.33 0.23 66 1009.5
20260506141604 12 346 3.2 14.5 0.00 0.33 0.23 67 1009.5
20260506141104 13 350 9.7 19.3 0.00 0.33 0.23 67 1009.5
20260506140103 13 348 6.4 19.3 0.00 0.38 0.23 66 1009.5
20260506135603 13 322 3.2 16.1 0.00 0.41 0.23 66 1009.5
20260506134604 13 310 3.2 8.0 0.00 0.43 0.23 65 1009.6
20260506134104 14 316 1.6 9.7 0.00 0.43 0.23 65 1009.6
20260506133603 13 331 3.2 11.3 0.00 0.43 0.23 67 1009.5
20260506133104 13 305 1.6 8.0 0.00 0.43 0.23 68 1009.5
20260506132604 13 342 3.2 11.3 0.00 0.43 0.23 68 1009.5
20260506132104 13 322 4.8 9.7 0.00 0.43 0.23 67 1009.6
20260506131604 13 315 1.6 9.7 0.00 0.43 0.23 67 1009.5
20260506130603 13 331 4.8 14.5 0.00 0.43 0.23 65 1009.4
20260506130105 14 333 1.6 8.0 0.00 0.43 0.23 62 1009.2
20260506125604 14 324 1.6 8.0 0.00 0.43 0.23 64 1009.2
20260506125104 13 319 4.8 11.3 0.00 0.43 0.23 66 1009.2
20260506124604 13 343 1.6 11.3 0.00 0.43 0.23 67 1009.2
20260506124104 13 352 4.8 16.1 0.00 0.43 0.23 66 1009.2
20260506123604 13 6 8.0 16.1 0.00 0.43 0.23 65 1009.1